Simultaneous Nadir Overpasses (SNOs) Predictions

Prediction of SNOs near US between AQUA and NPP Satellite Orbit:

Table of predicted SNOs near US for the next 10.0 days since TLE Epoch: 4/16/2022
Index Date (AQUA) Time (AQUA) AQUA Lat,Lon Date (NPP) Time (NPP) NPP Lat,Lon Distance(km) Time Diff (sec)
1 04/17/2022 19:02:56 49.95, -91.22 04/17/2022 19:01:14 49.40, -94.27 227.81 102
2 04/20/2022 06:52:09 21.26, -75.43 04/20/2022 06:44:09 21.42, -76.30 91.82 480
3 04/20/2022 08:28:31 30.33, -97.90 04/20/2022 08:23:02 30.60, -99.27 135.11 329
4 04/20/2022 10:04:52 39.42,-120.02 04/20/2022 10:01:55 39.75,-121.88 163.47 177
5 04/25/2022 18:12:38 49.97, -78.62 04/25/2022 18:10:26 49.48, -81.60 221.03 132
